Location: Chuathbaluk
(61.5726°N, 159.2454°W)
Time: 04:25:21
(UTC+00:00)

Transit 4A - Pass Details

Date: 30 November 2020
Orbit: 864 x 980 km, 66.8° (Epoch: 26 January)

Event Time Altitude Azimuth Distance (km) Brightness Sun altitude
Rises 03:06:19 0° 311° (NW) 3,694 11.3 -10.1°
Reaches altitude 10° 03:09:06 10° 303° (WNW) 2,738 10.8 -10.4°
Maximum altitude 03:14:49 36° 240° (WSW) 1,499 9.8 -11.0°
Drops below altitude 10° 03:20:25 10° 177° (S) 2,678 10.6 -11.6°
Sets 03:23:07 0° 169° (S) 3,603 11.1 -11.9°
